DW5082 Weather Reports


time (UTC)temp
F
wind
direction
speed
knots
gust
knots
rain 1hr
in
rain 24hr
in
rain mn
in
humidity
%
barometer
mb
20190419063205 56 167 0.9 4.3 0.00 0.04 0.00 91 1010.6
20190419061706 56 177 0.9 5.2 0.00 0.04 0.00 92 1010.8
20190419061205 56 190 0.9 2.6 0.00 0.04 0.00 92 1010.9
20190419060706 56 209 0.9 2.6 0.00 0.04 0.00 92 1011.0
20190419060206 56 203 1.7 6.1 0.00 0.04 0.00 92 1011.0
20190419054705 56 226 0.9 2.6 0.00 0.04 0.00 91 1011.3
20190419054205 56 184 0.9 6.1 0.00 0.04 0.00 91 1011.4
20190419053705 56 177 1.7 5.2 0.00 0.04 0.00 91 1011.5
20190419053205 56 227 3.5 7.8 0.00 0.04 0.00 91 1011.5
20190419051706 56 261 1.7 2.6 0.00 0.04 0.00 91 1011.5
20190419051206 56 170 1.7 4.3 0.00 0.04 0.00 92 1011.5
20190419050705 56 203 1.7 5.2 0.00 0.04 0.00 91 1011.6
20190419050205 56 193 1.7 6.1 0.00 0.04 0.00 91 1011.6
20190419044706 56 193 1.7 2.6 0.00 0.04 0.00 90 1011.8
20190419044205 56 211 0.9 7.0 0.00 0.04 0.00 90 1011.8
20190419043705 56 192 2.6 6.1 0.00 0.04 0.00 90 1011.8
20190419043205 56 198 1.7 8.7 0.00 0.04 0.00 90 1011.9
20190419041706 56 170 2.6 8.7 0.00 0.04 0.00 90 1011.9
20190419041205 56 225 1.7 6.1 0.00 0.04 0.00 90 1011.9
20190419040705 56 159 1.7 4.3 0.00 0.04 0.00 90 1011.9
20190419040206 56 184 1.7 8.7 0.00 0.04 0.00 90 1012.0
20190419034705 56 186 1.7 5.2 0.00 0.04 0.04 89 1012.0
20190419034205 56 184 2.6 5.2 0.00 0.04 0.04 89 1012.0
20190419033705 56 195 1.7 6.1 0.00 0.04 0.04 88 1012.1
20190419033205 56 162 1.7 8.7 0.00 0.04 0.04 88 1012.1
20190419031705 56 161 1.7 4.3 0.00 0.04 0.04 88 1012.3
20190419031206 56 178 1.7 5.2 0.00 0.04 0.04 88 1012.4
20190419030705 56 170 2.6 6.1 0.00 0.04 0.04 88 1012.3
20190419030205 56 156 0.9 4.3 0.00 0.04 0.04 88 1012.3
20190419024706 56 174 1.7 7.0 0.00 0.04 0.04 87 1012.2
20190419024206 55 182 1.7 2.6 0.00 0.04 0.04 87 1012.3
20190419023705 55 170 0.9 2.6 0.00 0.04 0.04 87 1012.4
20190419023205 55 175 0.9 5.2 0.00 0.04 0.04 86 1012.6
20190419021705 55 181 0.9 5.2 0.00 0.04 0.04 86 1012.6
20190419021206 55 166 0.9 5.2 0.00 0.04 0.04 87 1012.5
20190419020705 55 173 0.0 4.3 0.00 0.04 0.04 86 1012.6
20190419020206 55 200 1.7 5.2 0.00 0.04 0.04 86 1012.6
20190419014705 56 177 0.0 2.6 0.00 0.04 0.04 86 1012.6
20190419014206 56 179 0.9 2.6 0.00 0.04 0.04 87 1012.5
20190419013705 56 186 0.0 1.7 0.00 0.04 0.04 87 1012.5
20190419013206 56 234 0.0 2.6 0.00 0.04 0.04 87 1012.5
20190419011705 56 155 0.0 1.7 0.00 0.04 0.04 87 1012.5
20190419011206 56 224 0.0 2.6 0.00 0.04 0.04 87 1012.5
20190419010705 56 302 0.0 1.7 0.00 0.04 0.04 87 1012.5
20190419010205 56 311 0.0 0.9 0.00 0.04 0.04 87 1012.6
20190419004705 56 162 0.0 0.9 0.00 0.04 0.04 86 1012.6
20190419004205 56 143 0.0 0.9 0.00 0.04 0.04 86 1012.6
20190419003706 56 143 0.0 0.0 0.00 0.04 0.04 86 1012.7
20190419003206 56 306 0.0 1.7 0.00 0.04 0.04 86 1012.6
20190419001706 57 100 0.0 0.9 0.00 0.04 0.04 86 1012.5
20190419001205 57 6 0.9 1.7 0.00 0.04 0.04 86 1012.5
20190419000705 57 277 0.9 1.7 0.00 0.04 0.04 86 1012.5
20190419000206 57 84 0.9 4.3 0.00 0.04 0.04 86 1012.4
20190418234705 57 319 0.9 2.6 0.00 0.04 0.04 86 1012.5
20190418234205 57 71 0.9 2.6 0.00 0.04 0.04 86 1012.6
20190418233705 57 316 0.9 1.7 0.00 0.04 0.04 87 1012.7
20190418233206 57 44 0.9 2.6 0.00 0.04 0.04 87 1012.8
20190418231705 57 86 0.0 0.9 0.00 0.04 0.04 87 1013.1
20190418231205 58 9 0.0 1.7 0.00 0.04 0.04 86 1013.1
20190418230706 58 35 0.0 0.9 0.00 0.04 0.04 86 1013.1
20190418230205 58 52 0.9 2.6 0.00 0.04 0.04 86 1013.0
20190418224705 58 96 0.0 0.9 0.00 0.04 0.04 86 1013.0
20190418224206 58 89 0.0 2.6 0.00 0.04 0.04 86 1013.2
20190418223705 58 316 0.0 1.7 0.00 0.04 0.04 86 1013.3
20190418223205 58 289 0.0 1.7 0.00 0.04 0.04 86 1013.3
20190418221705 59 330 0.0 1.7 0.00 0.04 0.04 86 1013.6
20190418221205 59 207 0.0 1.7 0.00 0.04 0.04 86 1013.8
20190418220705 59 339 0.9 2.6 0.00 0.04 0.04 86 1013.7
20190418220205 59 71 0.9 4.3 0.00 0.04 0.04 86 1013.8
20190418214705 59 318 0.9 2.6 0.00 0.04 0.04 86 1014.0
20190418214205 59 30 0.9 2.6 0.00 0.04 0.04 86 1014.0
20190418213705 59 331 0.9 2.6 0.00 0.04 0.04 85 1014.0
20190418213205 59 167 0.9 2.6 0.00 0.04 0.04 86 1014.0
20190418211705 59 199 1.7 5.2 0.00 0.04 0.04 86 1014.2
20190418211205 59 71 0.9 5.2 0.00 0.04 0.04 87 1014.2
20190418210706 59 43 1.7 6.1 0.00 0.04 0.04 87 1014.4
20190418210205 58 2 0.9 6.1 0.00 0.04 0.04 88 1014.4
20190418204705 57 154 0.9 4.3 0.00 0.04 0.04 89 1014.6
20190418204205 57 33 1.7 2.6 0.00 0.04 0.04 89 1014.7
20190418203705 57 355 0.9 5.2 0.00 0.04 0.04 89 1014.8
20190418203205 57 170 0.9 7.0 0.00 0.04 0.04 90 1014.8
20190418201705 56 69 0.9 2.6 0.00 0.04 0.04 91 1014.9
20190418201205 55 211 0.9 2.6 0.00 0.04 0.04 91 1015.0
20190418200705 55 33 1.7 6.1 0.00 0.04 0.04 91 1015.1
20190418200206 55 97 0.9 4.3 0.00 0.04 0.04 91 1015.3
20190418194705 55 45 0.9 5.2 0.00 0.04 0.04 91 1015.5
20190418194205 54 340 2.6 5.2 0.00 0.04 0.04 91 1015.6
20190418193705 54 25 1.7 7.8 0.00 0.04 0.04 91 1015.5
20190418193205 54 4 0.9 4.3 0.00 0.04 0.04 92 1015.7
20190418191705 53 334 1.7 4.3 0.00 0.04 0.04 92 1016.0
20190418191205 52 319 0.9 1.7 0.00 0.04 0.04 92 1016.1
20190418190705 52 10 0.9 7.0 0.00 0.04 0.04 92 1016.2
20190418190206 52 29 0.9 7.8 0.00 0.04 0.04 92 1016.3
20190418184705 51 95 1.7 7.8 0.00 0.04 0.04 92 1016.9
20190418184205 51 50 1.7 5.2 0.00 0.04 0.04 92 1017.0
20190418183705 51 332 0.9 7.0 0.00 0.04 0.04 92 1017.1
20190418183205 51 16 1.7 7.8 0.00 0.04 0.04 92 1017.2
20190418181705 50 75 0.9 2.6 0.01 0.04 0.04 92 1017.4
20190418181205 50 79 0.9 5.2 0.01 0.04 0.04 92 1017.5
20190418180706 50 355 0.9 2.6 0.01 0.04 0.04 92 1017.6
20190418180205 50 57 1.7 8.7 0.01 0.04 0.04 92 1017.6
20190418174705 49 10 0.9 4.3 0.01 0.04 0.04 92 1017.8
20190418174205 49 52 0.9 5.2 0.01 0.04 0.04 92 1018.0
20190418173706 49 66 0.9 4.3 0.01 0.04 0.04 92 1018.1
20190418173206 49 50 1.7 10.4 0.02 0.04 0.04 92 1018.3
20190418171705 49 91 1.7 6.1 0.01 0.03 0.03 91 1018.6
20190418171205 48 68 0.0 6.1 0.01 0.03 0.03 91 1018.9
20190418170705 48 316 1.7 4.3 0.02 0.03 0.03 91 1019.0
20190418170205 48 60 1.7 2.6 0.02 0.03 0.03 91 1019.3
20190418164705 48 41 0.9 2.6 0.03 0.03 0.03 90 1019.6
20190418164205 48 22 0.0 2.6 0.03 0.03 0.03 90 1019.8
20190418163705 48 81 0.9 2.6 0.03 0.03 0.03 90 1019.9
20190418163205 48 132 0.0 4.3 0.02 0.02 0.02 90 1020.1
20190418161711 48 302 0.0 0.9 0.02 0.02 0.02 90 1020.2
20190418161205 48 14 0.0 1.7 0.02 0.02 0.02 89 1020.2
20190418160705 48 294 0.0 2.6 0.01 0.01 0.01 89 1020.4
20190418160205 48 48 0.9 2.6 0.01 0.01 0.01 88 1020.5
20190418154705 48 233 0.0 1.7 0.00 0.00 0.00 88 1020.5
20190418154205 48 70 0.0 0.9 0.00 0.00 0.00 87 1020.6
20190418153705 48 27 0.0 1.7 0.00 0.00 0.00 87 1020.5
20190418153205 48 91 0.0 2.6 0.00 0.00 0.00 86 1020.5
20190418151705 49 53 0.9 2.6 0.00 0.00 0.00 84 1020.4
20190418151205 49 106 0.9 2.6 0.00 0.00 0.00 83 1020.6
20190418150705 49 352 0.9 2.6 0.00 0.00 0.00 82 1020.4
20190418150205 49 66 0.9 6.1 0.00 0.00 0.00 81 1020.5
20190418144705 49 89 0.9 2.6 0.00 0.00 0.00 78 1020.4
20190418144205 50 12 0.9 2.6 0.00 0.00 0.00 78 1020.5
20190418143705 49 30 0.0 4.3 0.00 0.00 0.00 78 1020.5
20190418143205 49 179 0.0 8.7 0.00 0.00 0.00 77 1020.4
20190418141705 49 350 0.9 4.3 0.00 0.00 0.00 76 1020.7
20190418141205 49 106 1.7 7.0 0.00 0.00 0.00 75 1020.8
20190418140705 50 69 0.9 5.2 0.00 0.00 0.00 74 1020.8
20190418140205 50 344 0.9 5.2 0.00 0.00 0.00 74 1020.8
20190418134705 50 84 0.0 2.6 0.00 0.00 0.00 70 1021.1
20190418134206 51 299 0.9 6.1 0.00 0.00 0.00 68 1021.4
20190418133705 51 204 0.9 2.6 0.00 0.00 0.00 67 1021.4
20190418133205 51 260 0.9 5.2 0.00 0.00 0.00 66 1021.2
20190418131705 51 33 0.9 2.6 0.00 0.00 0.00 65 1021.2
20190418131206 51 43 0.9 2.6 0.00 0.00 0.00 65 1020.9
20190418130705 51 36 0.0 4.3 0.00 0.00 0.00 65 1021.1
20190418130205 51 38 0.9 6.1 0.00 0.00 0.00 65 1021.2
20190418124706 51 138 0.9 2.6 0.00 0.00 0.00 65 1021.3
20190418124206 51 353 0.9 4.3 0.00 0.00 0.00 65 1021.4
20190418123705 50 292 0.9 4.3 0.00 0.00 0.00 65 1021.4
20190418123205 50 331 0.9 4.3 0.00 0.00 0.00 65 1021.3
20190418121705 50 30 0.0 1.7 0.00 0.00 0.00 65 1022.1
20190418121206 50 205 0.9 2.6 0.00 0.00 0.00 65 1022.1
20190418120705 50 126 0.9 4.3 0.00 0.00 0.00 65 1022.1
20190418120205 50 341 0.9 4.3 0.00 0.00 0.00 64 1022.0
20190418114705 50 100 0.9 2.6 0.00 0.00 0.00 65 1021.9
20190418114206 50 248 0.0 2.6 0.00 0.00 0.00 65 1021.9
20190418113705 50 208 0.0 2.6 0.00 0.00 0.00 65 1021.9
20190418113205 49 103 0.9 5.2 0.00 0.00 0.00 66 1021.9
20190418111705 49 2 1.7 7.0 0.00 0.00 0.00 67 1021.7
20190418111205 49 84 0.9 4.3 0.00 0.00 0.00 67 1021.8
20190418110704 49 71 0.9 2.6 0.00 0.00 0.00 67 1022.1
20190418110205 49 269 0.0 2.6 0.00 0.00 0.00 68 1022.1
20190418104705 49 26 0.0 2.6 0.00 0.00 0.00 69 1022.0
20190418104205 49 27 0.9 1.7 0.00 0.00 0.00 69 1021.9
20190418103705 49 90 0.0 2.6 0.00 0.00 0.00 69 1021.9
20190418103205 49 335 0.9 2.6 0.00 0.00 0.00 69 1021.7
20190418101705 48 2 0.0 2.6 0.00 0.00 0.00 70 1021.9
20190418101205 48 72 0.9 1.7 0.00 0.00 0.00 71 1021.8
20190418100706 48 178 0.0 1.7 0.00 0.00 0.00 71 1021.7
20190418100205 48 332 0.0 2.6 0.00 0.00 0.00 72 1021.6
20190418094705 48 51 0.0 1.7 0.00 0.00 0.00 73 1021.9
20190418094205 48 312 0.0 0.9 0.00 0.00 0.00 73 1021.9
20190418093705 48 77 0.0 2.6 0.00 0.00 0.00 73 1021.8
20190418093205 48 34 0.0 2.6 0.00 0.00 0.00 73 1021.8
20190418091205 48 1 0.9 2.6 0.00 0.00 0.00 72 1022.0
20190418090705 48 14 0.0 2.6 0.00 0.00 0.00 71 1022.0
20190418090208 48 44 0.9 2.6 0.00 0.00 0.00 70 1022.1
20190418084705 48 14 0.0 2.6 0.00 0.00 0.00 68 1022.5
20190418084205 48 16 0.0 1.7 0.00 0.00 0.00 68 1022.4
20190418083705 48 13 0.0 0.0 0.00 0.00 0.00 67 1022.4
20190418083205 48 28 0.0 2.6 0.00 0.00 0.00 66 1022.4
20190418081705 48 55 0.9 2.6 0.00 0.00 0.00 65 1022.5
20190418081205 48 347 0.0 0.9 0.00 0.00 0.00 64 1022.4
20190418080705 47 32 0.0 2.6 0.00 0.00 0.00 64 1022.6
20190418080205 47 350 0.0 0.9 0.00 0.00 0.00 64 1022.8
20190418074705 47 338 0.0 1.7 0.00 0.00 0.00 64 1022.9
20190418074205 47 10 0.0 0.9 0.00 0.00 0.00 65 1022.8
20190418073705 47 49 0.0 1.7 0.00 0.00 0.00 65 1022.8
20190418073206 47 27 0.0 1.7 0.00 0.00 0.00 65 1022.9
20190418071705 47 331 0.0 0.9 0.00 0.00 0.00 66 1023.0
20190418071215 47 333 0.0 0.9 0.00 0.00 0.00 67 1022.9
20190418070705 47 113 0.0 0.9 0.00 0.00 0.00 67 1022.9
20190418070205 47 341 0.0 0.9 0.00 0.00 0.00 68 1023.0
20190418064705 47 9 0.0 0.9 0.00 0.00 0.00 66 1023.1
20190418064206 47 58 0.0 0.9 0.00 0.00 0.00 65 1023.1
20190418063705 47 31 0.0 1.7 0.00 0.00 0.00 65 1023.0